Location: Unspecified
(0.0000°N, 0.0000°E)
Time: 18:54:45
(UTC+00:00)

S-56A Canister/Altair - Pass Details

Date: 21 November 2019
Orbit: 633 x 2499 km, 38.9° (Epoch: 06 December)

Event Time Altitude Azimuth Distance (km) Brightness Sun altitude
Rises 11:49:51 0° 222° (SW) 5,971 12.3 70.1°
Reaches altitude 10° 11:53:40 10° 220° (SW) 5,072 12.1 70.0°
Maximum altitude 12:08:45 69° 138° (SE) 2,569 11.9 69.3°
Drops below altitude 10° 12:22:00 10° 58° (ENE) 4,537 11.4 68.2°
Sets 12:25:11 0° 55° (NE) 5,334 11.6 67.9°
